Weather in Kabitsyno

Russia / Kaluga Oblast     55°08′23″N   36°37′40″E
temp.,
°C
wind,
m/s
gust,
m/s
humid.,
%
clouds,
%
prec.,
mm/h
press.,
hPa
HPBL,
m
15 may, sat
sat1500:00+13e389899 1.3 1009177
03:00+14se41197100 1.8 1009306
06:00+13sse289871 0.0 1008229
09:00+18s468596 0.1 1009676
12:00+20ssw476195 0.2 10091523
15:00+22ssw585030 0.4 10082315
18:00+17s510807 1.1 1009946
21:00+14ssw412936 2.3 1010491
16 may, sun
sun1600:00+12ssw411976 0.1 1011420
03:00+11s399821 0.1 1012226
06:00+11s39963 0.0 1012301
09:00+16ssw48705 0.0 1013787
12:00+19ssw686031 0.2 10131548
15:00+20sw565662 0.3 10131615
18:00+19sw36722 0.1 1013987
21:00+14s12905 0.1 101410
17 may, mon
mon1700:00+12se1191100 0.0 101510
03:00+11ese229499 0.0 101518
06:00+13ese25915 0.0 1014130
09:00+19ese4766100 0.0 1014507
12:00+23ese575789 0.0 10121152
15:00+25se58569 0.0 10101359
18:00+23se5106622 0.0 1009899
21:00+20se5147940 0.0 1009632
18 may, tue
tue1800:00+18se4158199 0.0 1008536
03:00+15se4119099 0.0 1007285
06:00+15se31086100 0.0 1006277
09:00+20se4867100 0.0 1006530
12:00+23sse5760100 0.0 10061245
15:00+21sse41086100 1.6 1005945
18:00+20s5118743 1.8 10051043
21:00+16sse4119680 3.3 1006477
19 may, wed
wed1900:00+14s3998100 0.6 1006396
03:00+13sse2399100 0.6 100691
06:00+14se2497100 0.3 1005159
09:00+15s51192100 0.7 1005702
12:00+16s598981 2.5 1004950
15:00+15ssw5109292 4.7 1004788
18:00+12w51292100 0.9 1007799
21:00+12w3991100 0.9 1011535